Regional Weather Roundup
Issued by NWS Cleveland, OH

Home | Current Version | Previous Version | Graphics & Text | Print | Product List | Glossary On
Versions: 1 2 3 4 5 6 7 8 9 10 11 12 13 14 15 16 17 18 19 20 21 22 23 24 25 26 27 28 29 30 31 32 33 34 35 36 37 38 39 40 41 42 43 44 45 46 47 48 49 50
000
ASUS41 KCLE 021602
RWRCLE
OHIO REGIONAL WEATHER ROUNDUP
NATIONAL WEATHER SERVICE CLEVELAND, OH
1200 PM EDT TUE SEP 02 2014

NOTE: "FAIR" INDICATES FEW OR NO CLOUDS BELOW 12,000 FEET WITH NO
SIGNIFICANT WEATHER AND/OR OBSTRUCTIONS TO VISIBILITY.

OHZ001>008-015>018-024>027-034-035-043-044-021700-
   NORTHWEST OHIO

CITY           SKY/WX    TMP DP  RH WIND       PRES   REMARKS
DEFIANCE       RAIN      69  66  90 SW6       29.93R FOG
FINDLAY        PTSUNNY   78  65  63 SW14      29.93S
TOLEDO EXPRESS RAIN      70  67  90 SW7       29.90S FOG
TOLEDO EXEC    CLOUDY    74  65  73 SW16G23   29.91S
LIMA           CLOUDY    72  65  78 SW9       29.95S
$$

OHZ009>014-019>023-028>033-038-089-021700-
   NORTHEAST OHIO

CITY           SKY/WX    TMP DP  RH WIND       PRES   REMARKS
CLE-HOPKINS    CLOUDY    74  66  76 SW7       29.92R
CLE-LAKEFRONT  CLOUDY    76  65  68 SW10      29.89R
CUY CO. ARPT   CLOUDY    75  70  83 SW8       29.92R
LORAIN-ELYRIA  CLOUDY    76  66  71 W7        29.92R
ASHTABULA      CLOUDY    74  68  81 SW6       29.91S
AKRON-CANTON   CLOUDY    76  68  76 SW7       29.92F
WOOSTER        PTSUNNY   74  67  78 W6        29.94R
MANSFIELD      LGT RAIN  71  66  84 SW6       29.96R
YOUNGSTOWN     PTSUNNY   77  68  73 S5        29.92F
$$

OHZ042-051>053-060>062-070>072-077>081-021700-
  SOUTHWEST OHIO

CITY           SKY/WX    TMP DP  RH WIND       PRES   REMARKS
CINC-COVINGTON CLOUDY    74  68  81 SW13G21   29.98R
CINC-LUNKEN    CLOUDY    75  69  81 W12       29.97R
HAMILTON       PTSUNNY   75  68  78 VRB6      29.97F
DAYTON         CLOUDY    73  66  78 SW9       29.97F
WRIGHT-PAT AFB PTSUNNY   73  68  83 SW10      29.96F
DAYTON GENERAL PTSUNNY   73  67  81 SW9       29.96S
WILMINGTON     PTSUNNY   75  67  76 SW15      29.95F
$$

OHZ036-037-039>041-045>050-054>059-063>069-073>076-082>088-021700-
  CENTRAL AND SOUTHEAST OHIO

CITY           SKY/WX    TMP DP  RH WIND       PRES   REMARKS
COLUMBUS       PTSUNNY   76  67  73 SW9       29.96R
OSU AIRPORT    CLOUDY    74  66  76 SW13      29.96R
BOLTON FIELD   PTSUNNY   73  70  88 S10       29.96S
RICKENBACK AFB PTSUNNY   76  66  72 SW8       29.95
NEWARK         CLOUDY    74  69  85 SW10      29.94R
MARION         CLOUDY    71  65  81 W8        29.96R
LANCASTER      PTSUNNY   76  71  85 S8        29.94R
ZANESVILLE     CLOUDY    74  70  87 S8        29.92F
NEW PHILLY     CLOUDY    76  70  82 SE12      29.89F
$$


USA.gov is the U.S. government's official web portal to all federal, state and local government web resources and services.